SAS292 ENBR-ENGM

Flight info

Callsign SAS292
Flight time 0h 39m
Altitude 29000
Route GOKAB DCT ULVAN DCT ADOPI
Aircraft A320/M-SDE3FGHIJ1RWXYZ/ALB1

Departure

Time 2026-05-05 18:55
Airport Bergen Airport, Flesland (ENBR)

Arrival

Time 2026-05-05 19:35
Airport Oslo-Gardermoen International Airport (ENGM)
Time Latitude Longitude Altitude Speed Heading
2026-05-05 18:30 60.28741 5.22905 176 ft 0 kts 81°
2026-05-05 18:45 60.28739 5.22878 176 ft 3 kts 81°
2026-05-05 18:46 60.28736 5.22842 175 ft 3 kts 81°
2026-05-05 18:46 60.28734 5.22816 175 ft 0 kts 81°
2026-05-05 18:50 60.28734 5.22818 175 ft 1 kts 83°
2026-05-05 18:50 60.28717 5.22801 174 ft 7 kts 241°
2026-05-05 18:50 60.28678 5.22680 172 ft 10 kts 245°
2026-05-05 18:50 60.28670 5.22609 172 ft 5 kts 262°
2026-05-05 18:51 60.28668 5.22563 171 ft 5 kts 269°
2026-05-05 18:51 60.28677 5.22451 171 ft 11 kts 272°
2026-05-05 18:51 60.28617 5.22374 166 ft 6 kts 141°
2026-05-05 18:51 60.28567 5.22409 166 ft 10 kts 164°
2026-05-05 18:52 60.28493 5.22433 164 ft 13 kts 175°
2026-05-05 18:52 60.28381 5.22461 160 ft 19 kts 172°
2026-05-05 18:52 60.28259 5.22498 157 ft 16 kts 171°
2026-05-05 18:52 60.28164 5.22528 154 ft 15 kts 171°
2026-05-05 18:53 60.28077 5.22521 152 ft 13 kts 215°
2026-05-05 18:53 60.28059 5.22458 152 ft 0 kts 256°
2026-05-05 18:54 60.28053 5.22387 153 ft 9 kts 262°
2026-05-05 18:54 60.28064 5.22254 153 ft 11 kts 315°
2026-05-05 18:54 60.28098 5.22232 153 ft 0 kts 349°
2026-05-05 18:54 60.28102 5.22230 153 ft 4 kts 349°
2026-05-05 18:55 60.28364 5.22125 156 ft 75 kts 348°
2026-05-05 18:55 60.29079 5.21893 162 ft 131 kts 349°
2026-05-05 18:55 60.30112 5.21551 359 ft 157 kts 351°
2026-05-05 18:55 60.31178 5.21207 1093 ft 153 kts 348°
2026-05-05 18:56 60.32252 5.20817 1635 ft 165 kts 349°
2026-05-05 18:56 60.33448 5.20428 2015 ft 184 kts 349°
2026-05-05 18:56 60.34801 5.19974 2372 ft 209 kts 349°
2026-05-05 18:56 60.36319 5.19457 2854 ft 233 kts 349°
2026-05-05 18:57 60.37983 5.18888 3544 ft 248 kts 349°
2026-05-05 18:57 60.39703 5.18306 4526 ft 252 kts 349°
2026-05-05 18:57 60.41446 5.17719 5483 ft 257 kts 349°
2026-05-05 18:57 60.43198 5.17129 6179 ft 260 kts 350°
2026-05-05 18:58 60.45005 5.17304 7105 ft 267 kts 18°
2026-05-05 18:58 60.46522 5.19522 7978 ft 279 kts 51°
2026-05-05 18:58 60.47436 5.23043 8857 ft 285 kts 62°
2026-05-05 18:58 60.48209 5.26771 9729 ft 292 kts 75°
2026-05-05 18:59 60.48161 5.30901 10476 ft 301 kts 108°
2026-05-05 18:59 60.47072 5.34617 10849 ft 320 kts 137°
2026-05-05 18:59 60.45119 5.36903 11219 ft 332 kts 167°
2026-05-05 18:59 60.42857 5.38032 11852 ft 339 kts 165°
2026-05-05 19:00 60.40704 5.40114 12545 ft 350 kts 145°
2026-05-05 19:00 60.39060 5.43784 13199 ft 358 kts 119°
2026-05-05 19:00 60.38252 5.48537 13865 ft 361 kts 95°
2026-05-05 19:00 60.38293 5.53585 14490 ft 361 kts 79°
2026-05-05 19:01 60.38635 5.58644 15147 ft 365 kts 79°
2026-05-05 19:01 60.38958 5.63768 15745 ft 370 kts 80°
2026-05-05 19:01 60.39262 5.68971 16350 ft 375 kts 81°
2026-05-05 19:01 60.39558 5.74239 16961 ft 380 kts 81°
2026-05-05 19:02 60.39856 5.79586 17573 ft 385 kts 81°
2026-05-05 19:02 60.40157 5.85006 18188 ft 390 kts 81°
2026-05-05 19:02 60.40461 5.90495 18725 ft 396 kts 81°
2026-05-05 19:02 60.40774 5.96081 19185 ft 403 kts 81°
2026-05-05 19:03 60.41088 6.01691 19634 ft 410 kts 81°
2026-05-05 19:03 60.41408 6.07472 20123 ft 417 kts 81°
2026-05-05 19:03 60.41731 6.13362 20576 ft 425 kts 81°
2026-05-05 19:03 60.42055 6.19348 21001 ft 432 kts 82°
2026-05-05 19:04 60.42379 6.25434 21459 ft 438 kts 81°
2026-05-05 19:04 60.42705 6.31619 21893 ft 445 kts 82°
2026-05-05 19:04 60.43034 6.37899 22314 ft 452 kts 82°
2026-05-05 19:04 60.43297 6.44299 22705 ft 461 kts 88°
2026-05-05 19:05 60.43170 6.50822 23170 ft 467 kts 93°
2026-05-05 19:05 60.42985 6.57436 23608 ft 474 kts 93°
2026-05-05 19:05 60.42803 6.64134 24000 ft 479 kts 93°
2026-05-05 19:05 60.42618 6.70883 24429 ft 482 kts 93°
2026-05-05 19:06 60.42425 6.77690 24869 ft 486 kts 94°
2026-05-05 19:06 60.42225 6.84544 25324 ft 489 kts 94°
2026-05-05 19:06 60.42023 6.91438 25750 ft 493 kts 94°
2026-05-05 19:06 60.41817 6.98380 26163 ft 496 kts 94°
2026-05-05 19:07 60.41602 7.05360 26582 ft 499 kts 94°
2026-05-05 19:07 60.41383 7.12379 26966 ft 502 kts 94°
2026-05-05 19:07 60.41164 7.19443 27394 ft 504 kts 94°
2026-05-05 19:07 60.40940 7.26547 27785 ft 507 kts 94°
2026-05-05 19:08 60.40708 7.33685 28178 ft 510 kts 94°
2026-05-05 19:08 60.40465 7.40867 28581 ft 513 kts 95°
2026-05-05 19:08 60.40218 7.48075 28899 ft 515 kts 95°
2026-05-05 19:08 60.39972 7.55244 28966 ft 503 kts 95°
2026-05-05 19:09 60.39734 7.62206 28957 ft 491 kts 95°
2026-05-05 19:09 60.39494 7.69071 28968 ft 488 kts 95°
2026-05-05 19:09 60.38998 7.82716 28971 ft 486 kts 95°
2026-05-05 19:10 60.38487 7.96300 28974 ft 496 kts 95°
2026-05-05 19:10 60.37955 8.10280 28293 ft 493 kts 95°
2026-05-05 19:11 60.37690 8.17157 27341 ft 488 kts 95°
2026-05-05 19:11 60.37423 8.23949 26505 ft 482 kts 95°
2026-05-05 19:11 60.37156 8.30626 25949 ft 471 kts 95°
2026-05-05 19:11 60.36891 8.37133 25439 ft 459 kts 95°
2026-05-05 19:12 60.36627 8.43508 24945 ft 454 kts 95°
2026-05-05 19:12 60.36359 8.49866 24414 ft 455 kts 95°
2026-05-05 19:12 60.36086 8.56259 23883 ft 458 kts 95°
2026-05-05 19:12 60.35810 8.62683 23299 ft 460 kts 95°
2026-05-05 19:13 60.35533 8.69115 22893 ft 456 kts 95°
2026-05-05 19:13 60.35260 8.75438 22374 ft 447 kts 95°
2026-05-05 19:13 60.34991 8.81642 21678 ft 439 kts 95°
2026-05-05 19:13 60.34724 8.87719 20978 ft 429 kts 95°
2026-05-05 19:14 60.34459 8.93641 20505 ft 414 kts 95°
2026-05-05 19:14 60.34203 8.99328 20184 ft 404 kts 95°
2026-05-05 19:14 60.33947 9.04961 19699 ft 403 kts 95°
2026-05-05 19:14 60.33688 9.10592 19222 ft 402 kts 95°
2026-05-05 19:15 60.33427 9.16163 18843 ft 397 kts 95°
2026-05-05 19:15 60.33167 9.21685 18506 ft 391 kts 95°
2026-05-05 19:15 60.32908 9.27074 17849 ft 383 kts 95°
2026-05-05 19:15 60.32649 9.32372 17227 ft 377 kts 95°
2026-05-05 19:16 60.32384 9.37595 16888 ft 372 kts 96°
2026-05-05 19:16 60.31897 9.42662 16658 ft 363 kts 102°
2026-05-05 19:16 60.31379 9.47541 16329 ft 350 kts 102°
2026-05-05 19:16 60.30877 9.52298 15733 ft 342 kts 101°
2026-05-05 19:17 60.30388 9.56908 15388 ft 328 kts 101°
2026-05-05 19:17 60.29924 9.61296 15095 ft 315 kts 101°
2026-05-05 19:17 60.29465 9.65601 14766 ft 313 kts 101°
2026-05-05 19:17 60.29004 9.69883 14431 ft 312 kts 101°
2026-05-05 19:18 60.28541 9.74158 14099 ft 311 kts 101°
2026-05-05 19:18 60.28081 9.78408 13771 ft 310 kts 101°
2026-05-05 19:18 60.27616 9.82640 13410 ft 308 kts 104°
2026-05-05 19:18 60.26906 9.86633 13078 ft 306 kts 116°
2026-05-05 19:19 60.25818 9.90296 12745 ft 304 kts 127°
2026-05-05 19:19 60.24574 9.93711 12407 ft 302 kts 127°
2026-05-05 19:19 60.23337 9.97106 12070 ft 300 kts 127°
2026-05-05 19:19 60.22106 10.00481 11735 ft 298 kts 127°
2026-05-05 19:20 60.20881 10.03834 11402 ft 296 kts 127°
2026-05-05 19:20 60.19665 10.07169 11076 ft 295 kts 127°
2026-05-05 19:20 60.18454 10.10480 10735 ft 293 kts 127°
2026-05-05 19:20 60.17247 10.13778 10394 ft 292 kts 127°
2026-05-05 19:21 60.16048 10.17052 10141 ft 288 kts 127°
2026-05-05 19:21 60.14858 10.20194 10013 ft 278 kts 134°
2026-05-05 19:21 60.13356 10.22456 9902 ft 265 kts 158°
2026-05-05 19:21 60.11639 10.23384 9903 ft 252 kts 179°
2026-05-05 19:22 60.09919 10.23034 9906 ft 247 kts 200°
2026-05-05 19:22 60.08846 10.22281 9913 ft 247 kts 203°
2026-05-05 19:22 60.07227 10.21109 9912 ft 247 kts 202°
2026-05-05 19:22 60.05607 10.19941 9902 ft 248 kts 202°
2026-05-05 19:23 60.03983 10.18773 9906 ft 248 kts 202°
2026-05-05 19:23 60.02303 10.17929 9908 ft 251 kts 188°
2026-05-05 19:23 60.00546 10.17963 9863 ft 255 kts 173°
2026-05-05 19:23 59.98896 10.19222 9730 ft 257 kts 146°
2026-05-05 19:24 59.97683 10.21829 9585 ft 259 kts 118°
2026-05-05 19:24 59.97185 10.25249 9448 ft 258 kts 91°
2026-05-05 19:24 59.97190 10.28841 9310 ft 259 kts 88°
2026-05-05 19:24 59.97215 10.32430 9171 ft 259 kts 88°
2026-05-05 19:25 59.97237 10.36017 9033 ft 258 kts 89°
2026-05-05 19:25 59.97254 10.39589 8863 ft 255 kts 89°
2026-05-05 19:25 59.97269 10.43113 8595 ft 253 kts 89°
2026-05-05 19:25 59.97283 10.46609 8308 ft 251 kts 89°
2026-05-05 19:26 59.97296 10.50083 8021 ft 250 kts 89°
2026-05-05 19:26 59.97308 10.53539 7730 ft 249 kts 89°
2026-05-05 19:26 59.97317 10.56980 7438 ft 247 kts 89°
2026-05-05 19:26 59.97325 10.60396 7147 ft 245 kts 89°
2026-05-05 19:27 59.97333 10.63767 6926 ft 240 kts 90°
2026-05-05 19:27 59.97338 10.67084 6673 ft 237 kts 90°
2026-05-05 19:27 59.97342 10.70359 6401 ft 235 kts 90°
2026-05-05 19:27 59.97346 10.73602 6128 ft 233 kts 89°
2026-05-05 19:28 59.97352 10.76814 5846 ft 230 kts 89°
2026-05-05 19:28 59.97387 10.79983 5581 ft 227 kts 83°
2026-05-05 19:28 59.97707 10.83035 5300 ft 224 kts 74°
2026-05-05 19:28 59.98082 10.86005 5029 ft 221 kts 74°
2026-05-05 19:29 59.98451 10.88975 4749 ft 219 kts 75°
2026-05-05 19:29 59.98806 10.91858 4669 ft 208 kts 75°
2026-05-05 19:29 59.99257 10.94474 4610 ft 192 kts 57°
2026-05-05 19:29 60.00100 10.96388 4482 ft 179 kts 34°
2026-05-05 19:30 60.01196 10.97476 4206 ft 175 kts 12°
2026-05-05 19:30 60.02356 10.98118 4040 ft 169 kts 12°
2026-05-05 19:30 60.03439 10.98739 3981 ft 155 kts 12°
2026-05-05 19:30 60.04465 10.99329 3725 ft 150 kts 12°
2026-05-05 19:31 60.05432 10.99884 3485 ft 141 kts 12°
2026-05-05 19:31 60.06363 11.00416 3271 ft 137 kts 11°
2026-05-05 19:31 60.07276 11.00938 3070 ft 136 kts 11°
2026-05-05 19:31 60.08188 11.01458 2907 ft 136 kts 11°
2026-05-05 19:32 60.09088 11.01973 2713 ft 136 kts 11°
2026-05-05 19:32 60.10003 11.02497 2530 ft 135 kts 11°
2026-05-05 19:32 60.10895 11.03008 2348 ft 135 kts 11°
2026-05-05 19:32 60.11799 11.03526 2158 ft 135 kts 11°
2026-05-05 19:33 60.12701 11.04043 1967 ft 135 kts 11°
2026-05-05 19:33 60.13604 11.04561 1783 ft 135 kts 11°
2026-05-05 19:33 60.14506 11.05078 1576 ft 135 kts 12°
2026-05-05 19:33 60.15411 11.05598 1371 ft 136 kts 12°
2026-05-05 19:34 60.16318 11.06120 1159 ft 136 kts 14°
2026-05-05 19:34 60.17231 11.06612 942 ft 136 kts 14°
2026-05-05 19:34 60.18134 11.07138 782 ft 135 kts 16°
2026-05-05 19:35 60.19822 11.08008 674 ft 94 kts 10°
2026-05-05 19:35 60.20273 11.08348 677 ft 50 kts 24°
2026-05-05 19:35 60.20579 11.08569 679 ft 37 kts 15°
2026-05-05 19:35 60.20676 11.08836 677 ft 25 kts 86°
2026-05-05 19:36 60.20649 11.09013 682 ft 12 kts 96°
2026-05-05 19:36 60.20601 11.09144 682 ft 13 kts 175°
2026-05-05 19:36 60.20502 11.09094 682 ft 16 kts 195°
2026-05-05 19:36 60.20381 11.09026 682 ft 20 kts 195°
2026-05-05 19:37 60.20241 11.08950 681 ft 23 kts 196°
2026-05-05 19:37 60.20081 11.08852 681 ft 25 kts 197°
2026-05-05 19:37 60.19905 11.08749 679 ft 26 kts 194°
2026-05-05 19:37 60.19752 11.08666 679 ft 17 kts 198°
2026-05-05 19:38 60.19652 11.08607 678 ft 10 kts 196°
2026-05-05 19:38 60.19572 11.08560 676 ft 14 kts 192°
2026-05-05 19:38 60.19517 11.08663 678 ft 12 kts 105°
2026-05-05 19:38 60.19496 11.08815 683 ft 10 kts 105°
2026-05-05 19:39 60.19473 11.08974 683 ft 14 kts 106°
2026-05-05 19:39 60.19448 11.09147 683 ft 9 kts 107°
2026-05-05 19:39 60.19440 11.09212 685 ft 3 kts 92°
2026-05-05 19:39 60.19457 11.09252 683 ft 5 kts 32°
2026-05-05 19:40 60.19487 11.09271 685 ft 1 kts 15°
2026-05-05 19:40 60.19490 11.09272 685 ft 0 kts 15°